sat.trackr.live / text

‹ back to catalog

COSMOS 2508 (RODNIK-S *)

NORAD 40921 · 2015-050B

PAYLOAD ACTIVE UNKNOWN

§ Identity

Operator
Country
CIS
Launch date
2015-09-23
Launch site
PLMSC
Launch vehicle
Mass (kg)
RCS (m²)
1.50

External: N2YO · Heavens-Above · Gunter

§ Orbital elements

Epoch: 2026-09-20T04:07:01.107840Z

Period
115.86 min
Inclination
82.4919°
Eccentricity
0.0014568
Mean motion
12.42918322 rev/d
Perigee alt
1,482.8 km
Apogee alt
1,505.7 km
Semi-major
7,872.4 km
B*
5.6709e-4
RAAN
18.9870°
Arg perigee
173.2440°
Mean anomaly
186.8838°
Rev number
49,864

§ Raw data

COSMOS 2508 (RODNIK-S *)1 40921U 15050B   26263.17154060  .00000088  00000+0  56709-3 0  99952 40921  82.4919  18.9870 0014568 173.2440 186.8838 12.42918322498646

JSON: /api/v1/satellites/40921 · /tle

For live sub-satellite position, see the globe view (requires WebGL).

§ Visibility from observer

Set your observer location to see the next 7 days of passes ≥ 10°. The values pass through the URL so the page stays shareable.

No JS? Fill the form by hand. The geolocation button needs JavaScript.

§ Radio — SatNOGS DB

ModeDescriptionDownlinkUplink
FM UHF Unknown 388.687 MHz

1 transmitter · refreshed weekly from db.satnogs.org